This is the latest recevied weather packets stored in our database for station/object KC0RPY. If no packets are shown the sender has not sent any weather packets the latest 1 day(s).
| Time | Temp. | Humidity | Pressure | Rain* | Wind** | Luminosity | Snow |
|---|---|---|---|---|---|---|---|
| 1778008789 | 7.22° C | 97% | 1012.8 hPa | 1.78 mm | 0.45 m/s, 116° | 185 W/m² | - |
| 1778008488 | 7.78° C | 97% | 1012.8 hPa | 1.78 mm | 0 m/s | 139 W/m² | - |
| 1778008184 | 7.78° C | 97% | 1012.8 hPa | 0 mm | 0 m/s | 180 W/m² | - |
| 1778007879 | 7.78° C | 97% | 1012.8 hPa | 0 mm | 0 m/s | 223 W/m² | - |
| 1778007575 | 7.22° C | 97% | 1012.8 hPa | 0 mm | 0.45 m/s, 131° | 191 W/m² | - |
| 1778007273 | 7.22° C | 97% | 1012.8 hPa | 0 mm | 0.45 m/s, 124° | 119 W/m² | - |
| 1778006968 | 7.22° C | 97% | 1012.8 hPa | 0 mm | 1.34 m/s, 102° | 95 W/m² | - |
| 1778006666 | 7.22° C | 97% | 1012.8 hPa | 0 mm | 0.45 m/s, 125° | 78 W/m² | - |
| 1778006362 | 7.22° C | 97% | 1013.2 hPa | 0 mm | 0.45 m/s, 113° | 78 W/m² | - |
| 1778006059 | 7.22° C | 97% | 1013.2 hPa | 0 mm | 0.89 m/s, 84° | 112 W/m² | - |
| 1778005756 | 7.22° C | 97% | 1013.2 hPa | 0 mm | 0.45 m/s, 110° | 101 W/m² | - |
| 1778005453 | 7.22° C | 97% | 1013.5 hPa | 0 mm | 0.45 m/s, 109° | 104 W/m² | - |
| 1778005149 | 7.22° C | 97% | 1013.2 hPa | 0 mm | 0.45 m/s, 115° | 141 W/m² | - |
| 1778004846 | 7.22° C | 97% | 1013.5 hPa | 0 mm | 0.45 m/s, 123° | 151 W/m² | - |
| 1778004543 | 6.67° C | 97% | 1013.9 hPa | 0 mm | 0.89 m/s, 93° | 147 W/m² | - |
| 1778004240 | 7.22° C | 97% | 1013.9 hPa | 0 mm | 0.89 m/s, 75° | 109 W/m² | - |
| 1778003936 | 7.22° C | 97% | 1013.9 hPa | 0 mm | 0.45 m/s, 117° | 90 W/m² | - |
| 1778003632 | 7.22° C | 97% | 1013.5 hPa | 0 mm | 0.45 m/s, 117° | 116 W/m² | - |
| 1778003329 | 7.22° C | 98% | 1013.9 hPa | 0 mm | 0.45 m/s, 80° | 83 W/m² | - |
| 1778003027 | 7.22° C | 98% | 1013.5 hPa | 0 mm | 0.89 m/s, 47° | 70 W/m² | - |
| 1778002722 | 6.67° C | 98% | 1013.9 hPa | 0 mm | 0.45 m/s, 115° | 89 W/m² | - |
| 1778002419 | 7.22° C | 98% | 1013.9 hPa | 0 mm | 0.45 m/s, 97° | 98 W/m² | - |
| 1778002116 | 7.22° C | 98% | 1013.5 hPa | 0 mm | 0.89 m/s, 114° | 141 W/m² | - |
| 1778001814 | 7.22° C | 98% | 1013.5 hPa | 0 mm | 0.89 m/s, 109° | 174 W/m² | - |
| 1778001513 | 7.22° C | 98% | 1013.5 hPa | 0 mm | 0.89 m/s, 100° | 196 W/m² | - |
* Rain latest hour (hover to see other rain measurements)
** Current wind speed in m/s (hover to see current wind gust speed)